Probability
0 0 0 0 0 0 0 1 0 0 1 1 1 0 0 0 1 0 0 0 0 0 0 0 0 0 0 0 0 1 1 1 1 0 0 0 0 0 0 0 0 0 0
0 0 0 0 0 0 1 2 1 1 2 2 2 1 1 1 1 1 0 0 0 0 0 0 0 0 0 0 0 1 1 1 0 0 0 0 0 0 0 0 0 0 0
0 0 0 0 0 1 2 2 2 2 3 3 3 2 2 2 3 3 1 1 0 0 0 0 0 0 0 0 0 1 1 1 0 0 0 0 0 0 0 0 0 0 0
0 0 0 0 0 1 1 1 1 2 3 3 3 3 3 3 3 3 2 2 1 0 0 0 0 0 0 0 0 1 2 1 0 0 0 0 0 0 0 0 0 0 0
0 0 0 0 0 0 0 0 0 1 2 3 3 2 2 3 3 2 2 3 2 1 0 0 0 0 0 0 0 1 2 1 0 0 0 0 0 0 0 0 0 0 0
0 0 0 0 0 0 0 0 1 1 3 3 3 1 1 2 2 2 2 2 2 1 0 0 0 0 0 0 0 0 1 1 0 0 0 0 0 0 0 0 0 0 0
0 0 1 1 1 1 1 1 2 4 4 5 4 3 3 3 2 1 1 1 1 1 0 0 0 0 0 0 0 0 0 0 0 0 0 0 0 0 0 0 0 0 0
0 0 1 1 2 2 1 1 2 4 5 6 6 5 6 6 4 2 0 0 0 0 0 1 1 0 0 0 0 0 0 0 0 0 0 0 0 0 0 0 0 0 0
0 0 0 1 1 1 1 0 1 2 3 4 6 7 8 8 7 4 2 1 0 0 0 1 1 0 0 0 0 0 0 0 0 0 0 0 0 0 0 0 0 0 0
0 0 0 0 0 0 0 0 0 0 1 2 5 7 7 6 5 4 3 2 1 0 0 1 1 0 0 0 0 0 0 0 0 0 0 0 0 0 0 0 0 0 0
0 0 0 0 0 0 0 0 0 0 0 1 3 5 5 3 2 3 3 2 2 1 0 0 0 0 0 0 0 0 0 0 0 0 0 0 0 0 0 0 0 0 0
0 0 0 0 0 0 0 0 0 0 0 0 1 2 2 0 1 3 3 2 2 2 1 0 0 0 0 0 0 0 0 0 0 0 0 0 0 0 0 0 0 0 0
0 0 0 0 0 0 0 0 0 0 0 0 0 0 0 0 0 1 2 1 1 2 2 2 2 1 0 0 0 0 0 0 0 0 0 0 0 1 0 0 0 0 0
0 0 0 0 0 0 0 0 0 0 0 0 0 0 0 0 0 0 0 0 0 1 2 3 3 2 0 0 0 0 0 0 0 0 0 0 0 1 0 0 0 0 0
0 0 0 0 0 0 0 0 0 0 0 0 0 0 0 0 0 0 0 0 0 0 1 2 2 1 1 0 0 0 0 0 0 0 0 0 0 1 0 0 0 0 0
0 0 0 0 0 0 0 0 0 0 0 0 0 0 0 0 0 0 0 0 0 0 0 0 0 0 1 0 0 0 0 0 0 0 0 0 0 0 0 0 0 0 0
0 0 0 0 0 0 0 0 0 0 0 0 0 0 0 0 0 0 0 0 0 0 0 0 0 0 0 0 0 0 0 0 0 0 0 0 0 0 1 1 1 0 0
0 0 0 0 0 0 0 0 0 0 0 0 0 0 0 0 0 0 0 0 0 0 0 0 0 0 0 0 0 0 0 0 0 0 0 0 0 1 1 1 1 1 0
0 0 0 0 0 0 0 0 0 0 0 0 0 0 0 0 0 0 0 0 0 0 0 0 0 0 0 0 0 0 0 0 0 0 0 0 0 0 0 1 1 1 1
0 0 0 0 0 0 0 0 0 0 0 0 0 0 0 0 0 0 0 0 0 0 0 0 0 0 0 0 0 0 0 0 0 0 0 0 0 0 0 1 1 0 0
0 0 0 0 0 0 0 0 0 0 0 0 0 0 0 0 0 0 0 0 0 0 0 0 0 0 0 0 0 0 0 0 0 0 0 0 0 0 0 0 0 0 0
0 0 0 0 0 0 0 0 0 0 0 0 0 0 0 0 0 0 0 0 0 0 0 0 0 0 0 0 0 0 0 0 0 0 0 0 0 0 0 0 0 0 0
0 0 0 0 0 0 0 0 0 0 0 0 0 0 0 0 0 0 0 0 0 0 0 0 0 0 0 0 0 0 0 0 0 0 0 0 0 0 0 0 0 0 0
0 0 0 0 0 0 0 0 0 0 0 0 0 0 0 0 0 0 0 0 0 0 0 0 0 0 0 0 0 0 0 0 0 0 0 0 0 0 0 0 0 0 0
0 0 0 0 0 0 0 0 0 0 0 0 0 0 0 0 0 0 0 0 0 0 0 0 0 0 0 0 0 0 0 0 0 0 0 0 0 0 0 0 0 0 0
0 0 0 0 0 0 0 0 0 0 0 0 0 0 0 0 0 0 0 0 0 0 0 0 0 0 0 0 0 0 0 0 0 0 0 0 0 0 0 0 0 0 0
Wind_Speed
3 5 10 10 9 9 8 7 7 7 7 7 7 7 7 7 7 6 6 6 6 6 6 6 6 6 7 7 7 6 6 7 7 6 6 7 7 7 8 8 8 5 9
6 6 10 10 10 8 8 7 7 7 6 6 6 5 5 5 5 5 4 4 4 4 4 5 5 5 5 5 5 5 6 5 5 4 4 5 6 7 8 8 8 5 8
7 6 7 9 9 8 7 7 6 6 5 5 5 5 4 4 4 3 3 2 3 3 3 3 3 3 3 3 4 4 5 5 5 3 2 2 3 6 7 8 8 8 8
7 5 6 9 8 7 6 6 5 5 5 4 4 4 4 4 3 3 2 2 2 2 2 2 2 1 2 2 2 3 4 4 5 4 1 2 2 6 6 7 7 7 8
6 4 5 8 7 6 5 5 4 4 4 4 4 4 4 4 4 4 3 3 2 2 2 1 1 0 0 1 1 2 3 4 5 4 1 2 2 6 6 6 7 7 7
6 4 5 7 6 5 4 4 3 3 3 4 4 5 5 5 5 5 5 4 4 4 3 3 3 2 2 2 2 3 4 5 4 2 0 2 3 6 7 6 6 7 7
5 3 4 6 5 4 4 3 3 3 3 4 5 5 6 6 6 6 6 6 6 5 5 5 5 4 3 3 3 4 4 5 2 1 1 2 4 7 7 7 6 6 6
4 3 2 4 4 3 2 2 2 3 3 4 5 6 6 7 7 7 7 7 7 7 7 6 6 6 5 5 5 5 5 5 2 1 1 3 6 8 8 8 7 6 6
4 3 2 1 1 0 1 2 3 3 4 5 6 6 7 7 8 8 8 8 8 8 8 8 7 7 7 7 7 7 6 6 2 1 2 3 7 8 9 8 7 6 6
3 2 1 1 1 1 2 3 3 4 5 6 6 7 7 7 8 8 8 9 9 9 9 9 9 9 8 8 8 8 8 5 2 2 1 4 8 9 9 9 8 7 6
2 1 1 1 1 1 1 3 3 5 6 6 6 7 6 3 4 5 7 9 10 11 10 9 9 9 9 8 9 9 7 2 2 2 2 6 10 10 10 10 9 8 7
1 1 2 2 1 2 2 2 2 3 3 4 3 4 3 3 3 5 6 10 11 11 10 10 10 9 7 3 5 6 2 3 3 3 4 9 11 11 11 11 10 9 8
2 3 3 3 2 2 2 2 2 2 3 3 4 4 3 2 2 3 2 4 5 6 4 5 5 3 3 3 3 2 3 3 2 3 4 9 11 12 12 12 11 10 9
3 3 3 3 3 3 2 2 2 2 2 2 3 3 2 2 2 2 2 3 2 2 2 3 2 3 3 4 4 3 3 2 2 2 4 10 12 13 13 13 12 11 11
4 3 2 3 3 2 3 2 3 3 2 3 2 2 2 1 2 2 2 2 2 2 2 3 3 3 3 4 3 3 3 3 3 3 3 10 12 13 14 14 13 13 12
4 3 2 3 2 2 2 3 2 3 2 2 2 2 2 1 1 2 2 2 2 2 3 3 4 3 3 3 3 3 3 3 3 2 3 6 12 13 13 14 14 14 13
4 3 2 3 3 3 3 3 3 3 3 2 2 3 2 2 2 1 2 2 2 2 3 2 3 2 3 3 3 3 2 2 3 2 3 3 5 10 13 14 14 14 14
5 3 2 3 3 3 3 3 3 3 3 2 2 3 3 3 3 2 1 2 3 2 2 2 2 2 3 3 2 3 2 2 2 2 3 3 4 5 9 13 13 14 14
5 4 3 2 3 2 3 3 3 3 3 3 2 3 4 4 4 2 2 2 2 1 1 2 2 2 2 3 3 3 3 2 2 2 4 4 4 4 4 9 13 13 13
4 4 3 2 2 2 2 3 3 4 3 3 2 3 4 3 4 3 2 3 3 1 2 2 2 2 2 2 3 3 3 3 2 2 4 4 4 5 6 6 6 9 13
4 4 3 3 2 2 2 2 2 3 3 3 3 4 4 4 4 3 3 3 3 2 2 2 1 2 2 1 0 2 2 3 3 3 3 3 5 5 5 6 5 5 6
5 4 3 3 2 1 0 0 1 1 2 2 2 4 4 4 4 3 3 3 3 2 3 2 1 1 1 1 1 0 2 2 2 4 4 4 5 4 6 8 6 7 6
5 4 4 3 2 1 1 1 2 2 3 3 3 3 4 4 4 3 3 3 3 2 2 3 1 1 1 1 1 2 1 2 2 1 3 4 4 4 5 5 7 7 8
5 5 4 4 3 1 1 1 1 1 1 2 2 3 4 5 4 4 3 3 3 2 2 3 2 1 1 1 1 1 2 2 1 2 2 2 4 5 5 6 7 7 7
6 5 4 4 3 2 1 1 1 0 1 2 2 4 4 4 4 4 3 3 3 2 3 3 3 2 1 2 1 1 1 1 2 2 2 2 2 2 3 4 4 5 7
5 4 4 4 3 2 1 1 1 1 1 1 2 3 4 3 3 4 4 3 3 3 3 3 2 2 2 2 2 2 2 2 2 2 3 2 2 2 3 3 4 5 5
Wind_Direction
165 171 156 143 133 125 121 120 121 121 120 117 114 113 108 103 97 92 88 85 80 76 74 69 65 62 62 60 58 60 61 65 67 74 81 85 83 83 89 95 94 92 97
161 166 155 145 139 132 127 126 126 126 126 127 125 123 121 117 112 107 99 92 88 85 80 76 69 63 62 59 55 51 50 49 52 61 79 86 91 91 96 101 102 101 103
139 148 147 145 141 138 136 135 135 136 137 139 143 143 139 136 132 129 122 114 108 98 88 82 76 65 63 57 48 39 35 29 28 33 81 112 114 107 108 108 107 106 108
129 134 138 138 136 139 143 144 146 150 153 158 164 167 165 163 161 162 167 159 148 137 118 97 82 63 53 46 34 19 12 8 9 17 85 164 156 127 122 116 113 112 113
118 117 129 130 133 137 142 150 157 163 171 175 179 186 192 193 192 197 202 202 199 193 184 166 164 208 332 353 342 337 341 346 360 19 65 155 152 144 134 125 120 121 122
119 121 132 132 134 140 146 155 170 181 193 201 203 206 208 209 209 212 217 219 218 214 213 206 204 217 244 267 284 299 313 327 354 14 126 159 161 155 144 135 126 128 130
129 135 140 139 144 151 157 165 186 207 217 223 224 223 221 222 222 219 220 222 221 222 221 216 211 220 236 249 264 279 295 310 331 16 169 173 174 160 153 147 140 135 132
131 131 127 136 142 158 171 188 208 229 243 244 241 239 235 234 235 231 226 225 222 224 226 219 213 220 232 240 249 261 275 290 320 11 215 194 185 168 158 151 148 143 143
114 111 94 62 34 322 251 249 250 254 261 263 257 251 248 247 246 244 241 235 228 226 226 224 216 220 228 236 242 250 260 271 280 263 237 201 196 175 164 157 153 154 156
109 116 123 110 60 9 326 306 294 281 278 280 275 267 258 257 258 256 254 247 240 235 229 226 223 223 227 233 238 245 252 261 257 250 232 214 202 179 168 161 158 158 160
99 88 96 83 47 338 301 309 308 296 292 293 291 283 280 271 268 265 263 261 251 242 235 230 230 230 230 233 238 244 249 230 235 237 224 225 202 183 173 167 164 163 160
106 82 68 71 52 13 350 341 309 302 297 288 280 282 282 271 264 266 269 267 261 250 239 233 232 237 234 225 240 248 237 225 228 233 230 225 203 188 178 172 169 169 165
120 82 69 69 51 34 5 341 318 307 300 291 281 276 277 280 278 275 275 283 278 260 243 236 236 229 218 210 220 230 232 223 222 236 234 225 205 193 183 176 173 172 170
103 92 72 65 52 34 23 352 340 327 312 302 292 290 278 277 276 275 266 268 269 260 237 229 226 225 219 215 217 225 230 218 224 229 231 223 209 200 190 182 178 176 175
115 114 91 75 61 39 23 353 358 339 332 321 318 318 299 277 276 273 272 269 264 254 241 231 225 226 225 223 223 224 223 219 229 231 229 219 214 206 196 188 183 180 180
132 136 113 87 68 44 19 351 341 340 340 349 351 340 334 309 294 284 282 275 267 254 241 228 225 224 230 227 231 230 233 222 221 231 224 222 215 206 199 194 187 184 183
143 141 136 113 67 44 18 356 356 348 355 359 348 351 359 0 340 315 291 286 279 267 256 245 237 228 231 228 233 239 233 224 207 221 226 218 215 210 205 199 191 187 187
134 129 104 88 73 52 32 6 356 358 2 357 354 359 0 360 357 347 322 302 297 287 266 253 233 229 234 228 230 240 232 221 201 212 227 227 215 211 212 206 195 191 191
138 134 118 99 82 61 32 11 2 357 1 353 358 2 357 359 3 358 331 312 310 311 285 276 247 228 236 237 233 238 231 218 216 221 214 222 216 213 209 211 202 194 195
129 126 119 93 77 66 32 12 1 358 353 354 351 348 355 354 356 359 345 340 337 332 313 296 273 250 234 234 250 247 230 220 208 218 219 215 212 216 213 209 202 202 201
113 110 110 93 79 65 37 13 356 341 332 340 339 348 350 350 349 350 349 344 345 335 308 301 287 276 259 209 236 285 269 228 216 221 217 213 216 214 206 207 201 194 203
130 122 118 116 115 97 100 257 265 288 298 306 326 340 341 343 340 343 348 336 337 337 337 333 328 302 277 183 166 226 306 313 251 226 211 216 221 208 207 209 203 197 195
142 147 140 142 135 126 86 37 7 5 352 350 341 336 325 330 335 335 335 335 340 343 329 320 313 259 267 266 191 177 191 241 288 277 227 226 222 211 209 204 203 202 200
166 161 153 155 159 166 113 81 61 14 322 295 298 312 321 331 336 338 339 342 340 338 327 313 326 279 227 249 263 225 213 185 211 310 302 246 229 219 210 209 206 204 201
172 168 168 165 182 202 168 141 136 244 271 298 319 336 337 334 337 337 340 342 336 329 320 315 325 312 252 218 214 223 239 219 195 203 272 296 286 245 218 214 203 201 202
176 175 173 173 202 221 208 142 158 199 265 336 332 335 333 329 328 331 331 336 329 322 314 312 316 316 289 260 238 212 199 202 200 194 230 256 269 267 243 222 209 205 202